Time,TemperatureF,DewpointF,PressureIn,WindDirection,WindDirectionDegrees,WindSpeedMPH,WindSpeedGustMPH,Humidity,HourlyPrecipIn,Conditions,Clouds,dailyrainin,SoftwareType,DateUTC
2013-05-06 00:00:00,48.1,47.0,29.75,South,180,0.0,1.0,96,0.19,,,0.54,weatherlink.com 1.10,2013-05-06 05:00:00,
2013-05-06 00:15:00,48.2,47.0,29.75,West,261,0.0,1.0,96,0.18,,,0.02,weatherlink.com 1.10,2013-05-06 05:15:00,
2013-05-06 00:30:00,48.3,47.0,29.74,West,276,0.0,1.0,96,0.19,,,0.09,weatherlink.com 1.10,2013-05-06 05:30:00,
2013-05-06 00:45:00,48.5,48.0,29.73,South,184,0.0,3.0,96,0.17,,,0.14,weatherlink.com 1.10,2013-05-06 05:45:00,
2013-05-06 01:00:00,48.7,48.0,29.73,NW,318,0.0,1.0,96,0.19,,,0.19,weatherlink.com 1.10,2013-05-06 06:00:00,
2013-05-06 01:15:00,48.7,48.0,29.73,West,273,0.0,1.0,96,0.24,,,0.26,weatherlink.com 1.10,2013-05-06 06:15:00,
2013-05-06 01:30:00,48.8,48.0,29.72,West,267,0.0,1.0,96,0.32,,,0.41,weatherlink.com 1.10,2013-05-06 06:30:00,
2013-05-06 01:45:00,48.8,48.0,29.72,WSW,255,0.0,1.0,96,0.32,,,0.46,weatherlink.com 1.10,2013-05-06 06:45:00,
2013-05-06 02:00:00,48.8,48.0,29.71,West,264,0.0,2.0,96,0.30,,,0.49,weatherlink.com 1.10,2013-05-06 07:00:00,
2013-05-06 02:15:00,48.9,48.0,29.71,West,275,0.0,1.0,96,0.24,,,0.50,weatherlink.com 1.10,2013-05-06 07:15:00,
2013-05-06 02:30:00,48.9,48.0,29.71,WSW,244,0.0,1.0,96,0.10,,,0.51,weatherlink.com 1.10,2013-05-06 07:30:00,
2013-05-06 02:45:00,48.9,48.0,29.72,WNW,288,0.0,1.0,96,0.08,,,0.54,weatherlink.com 1.10,2013-05-06 07:45:00,
2013-05-06 03:00:00,48.8,48.0,29.72,WNW,284,0.0,4.0,96,0.11,,,0.60,weatherlink.com 1.10,2013-05-06 08:00:00,
2013-05-06 03:15:00,48.7,48.0,29.72,NW,305,0.0,2.0,96,0.14,,,0.64,weatherlink.com 1.10,2013-05-06 08:15:00,
2013-05-06 03:30:00,48.7,48.0,29.73,WNW,298,0.0,1.0,96,0.15,,,0.66,weatherlink.com 1.10,2013-05-06 08:30:00,
2013-05-06 03:45:00,48.6,48.0,29.73,WNW,298,0.0,0.0,96,0.15,,,0.69,weatherlink.com 1.10,2013-05-06 08:45:00,
2013-05-06 04:00:00,48.5,48.0,29.73,WNW,294,0.0,0.0,96,0.13,,,0.73,weatherlink.com 1.10,2013-05-06 09:00:00,
2013-05-06 04:15:00,48.6,48.0,29.73,WNW,283,0.0,1.0,96,0.12,,,0.76,weatherlink.com 1.10,2013-05-06 09:15:00,
2013-05-06 04:30:00,48.6,48.0,29.73,WNW,282,0.0,1.0,96,0.12,,,0.78,weatherlink.com 1.10,2013-05-06 09:30:00,
2013-05-06 04:45:00,48.6,48.0,29.73,South,187,0.0,0.0,96,0.10,,,0.79,weatherlink.com 1.10,2013-05-06 09:45:00,
2013-05-06 05:00:00,48.6,48.0,29.74,SSW,192,0.0,1.0,96,0.06,,,0.79,weatherlink.com 1.10,2013-05-06 10:00:00,
2013-05-06 05:15:00,48.5,48.0,29.74,WSW,245,0.0,1.0,96,0.05,,,0.81,weatherlink.com 1.10,2013-05-06 10:15:00,
2013-05-06 05:30:00,48.5,48.0,29.75,WSW,246,0.0,1.0,96,0.05,,,0.83,weatherlink.com 1.10,2013-05-06 10:30:00,
2013-05-06 05:45:00,48.3,47.0,29.75,WSW,247,0.0,1.0,96,0.06,,,0.85,weatherlink.com 1.10,2013-05-06 10:45:00,
2013-05-06 06:00:00,48.3,47.0,29.76,WSW,256,0.0,1.0,96,0.10,,,0.89,weatherlink.com 1.10,2013-05-06 11:00:00,
2013-05-06 06:15:00,48.2,47.0,29.77,WSW,257,0.0,0.0,96,0.11,,,0.92,weatherlink.com 1.10,2013-05-06 11:15:00,
2013-05-06 06:30:00,48.2,47.0,29.77,WSW,257,0.0,1.0,96,0.12,,,0.95,weatherlink.com 1.10,2013-05-06 11:30:00,
2013-05-06 06:45:00,48.0,47.0,29.78,WSW,257,0.0,1.0,96,0.12,,,0.97,weatherlink.com 1.10,2013-05-06 11:45:00,
2013-05-06 07:01:00,47.9,47.0,29.78,West,269,0.0,1.0,96,0.09,,,0.98,weatherlink.com 1.10,2013-05-06 12:01:00,
2013-05-06 07:16:00,48.0,47.0,29.78,West,269,0.0,1.0,96,0.09,,,1.01,weatherlink.com 1.10,2013-05-06 12:16:00,
2013-05-06 07:31:00,48.1,47.0,29.78,West,272,0.0,1.0,96,0.07,,,1.02,weatherlink.com 1.10,2013-05-06 12:31:00,
2013-05-06 07:46:00,48.1,47.0,29.78,WSW,246,0.0,0.0,96,0.07,,,1.04,weatherlink.com 1.10,2013-05-06 12:46:00,
2013-05-06 08:01:00,48.1,47.0,29.78,West,269,0.0,1.0,96,0.07,,,1.05,weatherlink.com 1.10,2013-05-06 13:01:00,
2013-05-06 08:16:00,48.1,47.0,29.78,West,269,0.0,0.0,96,0.05,,,1.06,weatherlink.com 1.10,2013-05-06 13:16:00,
2013-05-06 08:31:00,48.1,47.0,29.78,West,263,0.0,0.0,96,0.05,,,1.07,weatherlink.com 1.10,2013-05-06 13:31:00,
2013-05-06 08:46:00,48.3,47.0,29.78,WSW,257,0.0,1.0,96,0.04,,,1.08,weatherlink.com 1.10,2013-05-06 13:46:00,
2013-05-06 09:01:00,48.5,48.0,29.78,South,178,0.0,2.0,96,0.03,,,1.08,weatherlink.com 1.10,2013-05-06 14:01:00,
2013-05-06 09:16:00,48.9,48.0,29.78,WNW,294,0.0,2.0,96,0.03,,,1.09,weatherlink.com 1.10,2013-05-06 14:16:00,
2013-05-06 09:31:00,49.1,48.0,29.79,SSW,202,0.0,2.0,96,0.02,,,1.09,weatherlink.com 1.10,2013-05-06 14:31:00,
2013-05-06 09:46:00,49.3,48.0,29.79,SW,229,0.0,0.0,96,0.01,,,1.09,weatherlink.com 1.10,2013-05-06 14:46:00,
2013-05-06 10:01:00,49.4,48.0,29.80,WSW,244,0.0,1.0,96,0.02,,,1.10,weatherlink.com 1.10,2013-05-06 15:01:00,
2013-05-06 10:16:00,49.8,49.0,29.80,WSW,244,0.0,0.0,96,0.02,,,1.11,weatherlink.com 1.10,2013-05-06 15:16:00,
2013-05-06 10:31:00,50.1,49.0,29.80,WSW,244,0.0,0.0,96,0.03,,,1.12,weatherlink.com 1.10,2013-05-06 15:31:00,
2013-05-06 10:46:00,50.4,49.0,29.80,WSW,244,0.0,0.0,96,0.04,,,1.13,weatherlink.com 1.10,2013-05-06 15:46:00,
2013-05-06 11:01:00,50.4,49.0,29.80,WSW,244,0.0,0.0,96,0.03,,,1.13,weatherlink.com 1.10,2013-05-06 16:01:00,
2013-05-06 11:16:00,50.4,49.0,29.80,WSW,244,0.0,0.0,96,0.04,,,1.15,weatherlink.com 1.10,2013-05-06 16:16:00,
2013-05-06 11:31:00,50.7,50.0,29.80,WSW,244,0.0,0.0,96,0.05,,,1.17,weatherlink.com 1.10,2013-05-06 16:31:00,
2013-05-06 11:46:00,50.8,50.0,29.80,WSW,244,0.0,0.0,96,0.07,,,1.20,weatherlink.com 1.10,2013-05-06 16:46:00,
2013-05-06 12:01:00,51.1,50.0,29.80,North,355,0.0,1.0,96,0.09,,,1.22,weatherlink.com 1.10,2013-05-06 17:01:00,
2013-05-06 12:16:00,51.3,50.0,29.80,SSW,209,0.0,2.0,96,0.09,,,1.24,weatherlink.com 1.10,2013-05-06 17:16:00,
2013-05-06 12:31:00,51.4,50.0,29.80,SSW,209,0.0,0.0,96,0.09,,,1.26,weatherlink.com 1.10,2013-05-06 17:31:00,
2013-05-06 12:46:00,51.4,50.0,29.80,SW,228,0.0,1.0,96,0.08,,,1.28,weatherlink.com 1.10,2013-05-06 17:46:00,
2013-05-06 13:01:00,51.4,50.0,29.80,SW,228,0.0,0.0,95,0.08,,,1.30,weatherlink.com 1.10,2013-05-06 18:01:00,
2013-05-06 13:16:00,51.7,51.0,29.80,SSE,159,0.0,2.0,96,0.09,,,1.33,weatherlink.com 1.10,2013-05-06 18:16:00,
2013-05-06 13:31:00,51.8,51.0,29.80,SW,225,0.0,1.0,96,0.08,,,1.34,weatherlink.com 1.10,2013-05-06 18:31:00,
2013-05-06 13:46:00,51.7,51.0,29.80,SSW,211,0.0,2.0,96,0.10,,,1.38,weatherlink.com 1.10,2013-05-06 18:46:00,
2013-05-06 14:01:00,51.9,51.0,29.80,WNW,295,0.0,1.0,96,0.10,,,1.40,weatherlink.com 1.10,2013-05-06 19:01:00,
2013-05-06 14:16:00,51.9,51.0,29.79,SSE,159,0.0,1.0,96,0.13,,,1.46,weatherlink.com 1.10,2013-05-06 19:16:00,
2013-05-06 14:31:00,51.9,51.0,29.79,West,263,0.0,1.0,95,0.17,,,1.51,weatherlink.com 1.10,2013-05-06 19:31:00,
2013-05-06 14:46:00,52.0,51.0,29.78,South,183,0.0,0.0,96,0.17,,,1.55,weatherlink.com 1.10,2013-05-06 19:46:00,
2013-05-06 15:01:00,52.0,51.0,29.77,South,178,0.0,1.0,96,0.19,,,1.59,weatherlink.com 1.10,2013-05-06 20:01:00,
2013-05-06 15:16:00,52.0,51.0,29.77,South,178,0.0,0.0,96,0.18,,,1.65,weatherlink.com 1.10,2013-05-06 20:16:00,
2013-05-06 15:31:00,52.0,51.0,29.76,South,190,0.0,2.0,96,0.20,,,1.71,weatherlink.com 1.10,2013-05-06 20:31:00,
2013-05-06 15:46:00,51.9,51.0,29.76,SSW,193,0.0,1.0,96,0.24,,,1.79,weatherlink.com 1.10,2013-05-06 20:46:00,
2013-05-06 16:01:00,51.9,51.0,29.76,SSW,207,0.0,2.0,96,0.25,,,1.84,weatherlink.com 1.10,2013-05-06 21:01:00,
2013-05-06 16:16:00,51.9,51.0,29.76,NE,40,0.0,0.0,96,0.26,,,1.91,weatherlink.com 1.10,2013-05-06 21:16:00,
2013-05-06 16:31:00,51.9,51.0,29.75,SSW,196,0.0,2.0,96,0.26,,,1.97,weatherlink.com 1.10,2013-05-06 21:31:00,
2013-05-06 16:46:00,51.9,51.0,29.75,South,179,0.0,1.0,96,0.24,,,2.03,weatherlink.com 1.10,2013-05-06 21:46:00,
2013-05-06 17:01:00,51.6,51.0,29.75,SSW,196,0.0,1.0,96,0.24,,,2.08,weatherlink.com 1.10,2013-05-06 22:01:00,
2013-05-06 17:16:00,51.7,51.0,29.76,SSW,196,0.0,0.0,96,0.17,,,2.08,weatherlink.com 1.10,2013-05-06 22:16:00,
2013-05-06 17:31:00,51.8,51.0,29.76,SSW,196,0.0,0.0,96,0.11,,,2.08,weatherlink.com 1.10,2013-05-06 22:31:00,
2013-05-06 17:46:00,52.0,51.0,29.76,SSW,196,0.0,0.0,96,0.05,,,2.08,weatherlink.com 1.10,2013-05-06 22:46:00,
2013-05-06 18:01:00,52.1,51.0,29.77,ENE,76,0.0,1.0,96,0.00,,,2.08,weatherlink.com 1.10,2013-05-06 23:01:00,
2013-05-06 18:16:00,52.5,52.0,29.77,ENE,76,0.0,0.0,97,0.00,,,2.08,weatherlink.com 1.10,2013-05-06 23:16:00,
2013-05-06 18:31:00,52.3,51.0,29.77,North,349,0.0,1.0,96,0.00,,,2.08,weatherlink.com 1.10,2013-05-06 23:31:00,
2013-05-06 18:46:00,52.3,51.0,29.77,NNW,331,0.0,3.0,95,0.00,,,2.08,weatherlink.com 1.10,2013-05-06 23:46:00,
2013-05-06 19:01:00,52.1,51.0,29.77,NW,307,0.0,1.0,94,0.00,,,2.08,weatherlink.com 1.10,2013-05-07 00:01:00,
2013-05-06 19:16:00,51.7,50.0,29.78,NW,308,0.0,0.0,94,0.00,,,2.08,weatherlink.com 1.10,2013-05-07 00:16:00,
2013-05-06 19:31:00,51.0,49.0,29.79,NW,308,0.0,0.0,94,0.00,,,2.08,weatherlink.com 1.10,2013-05-07 00:31:00,
2013-05-06 19:46:00,50.3,49.0,29.79,NW,308,0.0,0.0,94,0.00,,,2.08,weatherlink.com 1.10,2013-05-07 00:46:00,
2013-05-06 20:01:00,49.7,48.0,29.79,NW,308,0.0,0.0,94,0.00,,,2.08,weatherlink.com 1.10,2013-05-07 01:01:00,
2013-05-06 20:16:00,49.1,48.0,29.79,NW,308,0.0,0.0,94,0.00,,,2.08,weatherlink.com 1.10,2013-05-07 01:16:00,
2013-05-06 20:31:00,48.6,47.0,29.80,NW,308,0.0,0.0,95,0.00,,,2.08,weatherlink.com 1.10,2013-05-07 01:31:00,
2013-05-06 20:46:00,48.2,47.0,29.81,NW,308,0.0,0.0,95,0.00,,,2.08,weatherlink.com 1.10,2013-05-07 01:46:00,
2013-05-06 21:01:00,47.9,47.0,29.82,NW,308,0.0,0.0,95,0.00,,,2.08,weatherlink.com 1.10,2013-05-07 02:01:00,
2013-05-06 21:16:00,47.7,46.0,29.82,NW,308,0.0,0.0,95,0.00,,,2.08,weatherlink.com 1.10,2013-05-07 02:16:00,
2013-05-06 21:31:00,47.5,46.0,29.83,NW,308,0.0,0.0,95,0.00,,,2.08,weatherlink.com 1.10,2013-05-07 02:31:00,
2013-05-06 21:46:00,47.3,46.0,29.83,NW,308,0.0,0.0,95,0.00,,,2.08,weatherlink.com 1.10,2013-05-07 02:46:00,
2013-05-06 22:01:00,47.0,46.0,29.84,NW,308,0.0,0.0,95,0.00,,,2.08,weatherlink.com 1.10,2013-05-07 03:01:00,
2013-05-06 22:16:00,46.8,46.0,29.83,NW,308,0.0,0.0,95,0.00,,,2.08,weatherlink.com 1.10,2013-05-07 03:16:00,
2013-05-06 22:32:00,46.4,45.0,29.84,NW,308,0.0,0.0,95,0.00,,,2.08,weatherlink.com 1.10,2013-05-07 03:32:00,
2013-05-06 22:47:00,46.3,45.0,29.84,NW,308,0.0,0.0,96,0.00,,,2.08,weatherlink.com 1.10,2013-05-07 03:47:00,
2013-05-06 23:02:00,46.4,45.0,29.83,NW,308,0.0,0.0,96,0.00,,,2.08,weatherlink.com 1.10,2013-05-07 04:02:00,
2013-05-06 23:17:00,46.6,46.0,29.84,NW,308,0.0,0.0,96,0.00,,,2.08,weatherlink.com 1.10,2013-05-07 04:17:00,
2013-05-06 23:32:00,46.8,46.0,29.84,NW,308,0.0,0.0,96,0.00,,,2.08,weatherlink.com 1.10,2013-05-07 04:32:00,
2013-05-06 23:47:00,47.1,46.0,29.83,NW,308,0.0,0.0,96,0.00,,,2.08,weatherlink.com 1.10,2013-05-07 04:47:00,